DW3296 Weather Reports


Display with metric or nautical units.
time (UTC)temp
F
wind
direction
speed
MPH
gust
MPH
rain 1hr
in
rain 24hr
in
rain mn
in
humidity
%
barometer
mb
20190717011818 79 232 5.0 15.0 0.00 0.00 0.00 38 1009.7
20190717011319 79 277 3.0 21.0 0.00 0.00 0.00 39 1009.7
20190717010820 79 230 9.0 21.0 0.00 0.00 0.00 38 1009.6
20190717010320 79 194 7.0 21.0 0.00 0.00 0.00 38 1009.7
20190717005813 79 196 6.0 21.0 0.00 0.00 0.00 37 1009.6
20190717005313 79 223 7.0 21.0 0.00 0.00 0.00 37 1009.8
20190717004812 80 185 8.0 19.0 0.00 0.00 0.00 36 1009.7
20190717004316 80 224 4.0 19.0 0.00 0.00 0.00 36 1009.8
20190717003817 80 179 10.0 19.0 0.00 0.00 0.00 36 1009.9
20190717003318 80 198 9.0 15.0 0.00 0.00 0.00 36 1009.9
20190717002824 80 198 9.0 15.0 0.00 0.00 0.00 36 1009.9
20190717002325 80 221 6.0 24.0 0.00 0.00 0.00 35 1010.0
20190717001825 81 259 8.0 24.0 0.00 0.00 0.00 35 1009.9
20190717001326 81 277 2.0 17.0 0.00 0.00 0.00 36 1010.1
20190717000828 81 265 2.0 17.0 0.00 0.00 0.00 36 1010.1
20190717000309 81 223 5.0 12.0 0.00 0.00 0.00 35 1010.2
20190716235822 81 228 5.0 17.0 0.00 0.00 0.00 35 1010.3
20190716235324 81 257 9.0 17.0 0.00 0.00 0.00 35 1010.3
20190716234825 81 201 4.0 17.0 0.00 0.00 0.00 35 1010.5
20190716234325 81 285 5.0 18.0 0.00 0.00 0.00 34 1010.6
20190716233826 82 182 5.0 18.0 0.00 0.00 0.00 35 1010.6
20190716233327 82 290 6.0 12.0 0.00 0.00 0.00 34 1010.5
20190716232811 82 351 5.0 15.0 0.00 0.00 0.00 35 1010.8
20190716232313 82 293 2.0 17.0 0.00 0.00 0.00 36 1010.7
20190716231812 82 224 5.0 17.0 0.00 0.00 0.00 35 1010.8
20190716231313 82 196 5.0 17.0 0.00 0.00 0.00 36 1010.8
20190716230812 82 211 4.0 19.0 0.00 0.00 0.00 36 1010.8
20190716230313 82 220 6.0 19.0 0.00 0.00 0.00 36 1010.8
20190716225826 82 230 3.0 16.0 0.00 0.00 0.00 36 1010.7
20190716225328 82 215 4.0 16.0 0.00 0.00 0.00 37 1010.9
20190716224828 83 300 7.0 20.0 0.00 0.00 0.00 36 1010.9
20190716224310 83 157 9.0 20.0 0.00 0.00 0.00 37 1010.9
20190716223812 83 336 5.0 18.0 0.00 0.00 0.00 36 1010.9
20190716223313 83 225 6.0 18.0 0.00 0.00 0.00 36 1011.2
20190716222816 83 293 6.0 17.0 0.00 0.00 0.00 37 1011.2
20190716222321 84 279 3.0 22.0 0.00 0.00 0.00 36 1011.2
20190716221822 84 198 7.0 22.0 0.00 0.00 0.00 37 1011.2
20190716221324 84 299 2.0 16.0 0.00 0.00 0.00 37 1011.2
20190716220825 84 223 4.0 16.0 0.00 0.00 0.00 37 1011.2
20190716220326 83 229 5.0 11.0 0.00 0.00 0.00 38 1011.2
20190716215817 83 193 2.0 11.0 0.00 0.00 0.00 38 1011.2
20190716215318 83 239 3.0 14.0 0.00 0.00 0.00 39 1011.3
20190716214819 83 238 5.0 15.0 0.00 0.00 0.00 38 1011.2
20190716214321 83 302 5.0 16.0 0.00 0.00 0.00 38 1011.2
20190716213823 83 232 5.0 16.0 0.00 0.00 0.00 37 1011.1
20190716213324 84 239 4.0 13.0 0.00 0.00 0.00 37 1011.3
20190716212824 84 340 2.0 13.0 0.00 0.00 0.00 38 1011.3
20190716212311 84 239 6.0 12.0 0.00 0.00 0.00 36 1011.2
20190716211813 85 289 6.0 12.0 0.00 0.00 0.00 36 1011.3
20190716211314 85 272 4.0 10.0 0.00 0.00 0.00 37 1011.3
20190716210816 85 290 2.0 12.0 0.00 0.00 0.00 37 1011.3
20190716210317 84 221 3.0 12.0 0.00 0.00 0.00 38 1011.4
20190716205311 85 245 7.0 16.0 0.00 0.00 0.00 37 1011.4
20190716204813 85 214 4.0 16.0 0.00 0.00 0.00 38 1011.5
20190716204313 85 211 3.0 9.0 0.00 0.00 0.00 38 1011.5
20190716203814 85 298 3.0 12.0 0.00 0.00 0.00 39 1011.5
20190716203316 84 224 3.0 15.0 0.00 0.00 0.00 39 1011.5
20190716202817 84 182 7.0 17.0 0.00 0.00 0.00 40 1011.5
20190716202317 84 202 3.0 17.0 0.00 0.00 0.00 40 1011.5
20190716201822 84 218 3.0 15.0 0.00 0.00 0.00 41 1011.5
20190716201323 84 196 8.0 12.0 0.00 0.00 0.00 40 1011.6
20190716200824 84 186 5.0 12.0 0.00 0.00 0.00 41 1011.6
20190716200324 84 264 1.0 10.0 0.00 0.00 0.00 41 1011.6
20190716195814 85 200 6.0 10.0 0.00 0.00 0.00 40 1011.8
20190716195315 85 184 3.0 13.0 0.00 0.00 0.00 42 1011.8
20190716194816 85 231 3.0 13.0 0.00 0.00 0.00 40 1011.8
20190716194318 85 304 2.0 6.0 0.00 0.00 0.00 40 1011.8
20190716193819 85 317 3.0 6.0 0.00 0.00 0.00 39 1012.0
20190716193319 85 309 2.0 6.0 0.00 0.00 0.00 40 1011.9
20190716192821 85 267 3.0 5.0 0.00 0.00 0.00 39 1012.0
20190716192323 85 309 1.0 4.0 0.00 0.00 0.00 40 1012.0
20190716191823 85 311 0.0 12.0 0.00 0.00 0.00 41 1012.0
20190716191328 84 211 3.0 12.0 0.00 0.00 0.00 41 1012.0
20190716190828 84 200 0.0 4.0 0.00 0.00 0.00 43 1012.0
20190716190309 83 194 1.0 4.0 0.00 0.00 0.00 43 1012.0
20190716185824 83 74 1.0 9.0 0.00 0.00 0.00 44 1012.0
20190716185325 83 16 1.0 9.0 0.00 0.00 0.00 43 1012.1
20190716184826 83 55 1.0 6.0 0.00 0.00 0.00 44 1012.1
20190716184326 82 326 1.0 5.0 0.00 0.00 0.00 44 1012.0
20190716183827 82 317 2.0 6.0 0.00 0.00 0.00 44 1012.0
20190716183328 82 312 3.0 6.0 0.00 0.00 0.00 45 1012.1
20190716182810 81 316 1.0 5.0 0.00 0.00 0.00 47 1012.1
20190716182309 81 142 1.0 5.0 0.00 0.00 0.00 47 1012.1
20190716181811 80 60 1.0 5.0 0.00 0.00 0.00 49 1012.2
20190716181317 80 325 2.0 8.0 0.00 0.00 0.00 48 1012.2
20190716180818 79 215 3.0 8.0 0.00 0.00 0.00 50 1012.2
20190716180319 78 250 0.0 2.0 0.00 0.00 0.00 50 1012.2
20190716175813 78 251 0.0 4.0 0.00 0.00 0.00 52 1012.2
20190716175314 77 257 1.0 7.0 0.00 0.00 0.00 54 1012.2
20190716174816 76 222 1.0 7.0 0.00 0.00 0.00 59 1012.2
20190716174318 75 208 1.0 10.0 0.00 0.00 0.00 59 1012.2
20190716173818 74 219 2.0 10.0 0.00 0.00 0.00 63 1012.3
20190716173318 73 206 2.0 8.0 0.00 0.00 0.00 64 1012.3
20190716172815 73 213 4.0 13.0 0.00 0.00 0.00 65 1012.3
20190716172311 72 194 6.0 13.0 0.00 0.00 0.00 66 1012.3
20190716171811 72 213 4.0 13.0 0.00 0.00 0.00 67 1012.4
20190716171311 71 224 3.0 11.0 0.00 0.00 0.00 68 1012.3
20190716170817 71 153 5.0 11.0 0.00 0.00 0.00 68 1012.3
20190716170317 70 209 5.0 13.0 0.00 0.00 0.00 69 1012.3
20190716165829 70 205 5.0 16.0 0.00 0.00 0.00 70 1012.3
20190716165311 69 229 5.0 16.0 0.00 0.00 0.00 70 1012.3
20190716164813 69 203 4.0 14.0 0.00 0.00 0.00 70 1012.4
20190716164315 69 178 3.0 14.0 0.00 0.00 0.00 71 1012.4
20190716163816 69 175 3.0 14.0 0.00 0.00 0.00 72 1012.5
20190716163317 68 209 4.0 14.0 0.00 0.00 0.00 72 1012.5
20190716162819 68 137 4.0 9.0 0.00 0.00 0.00 73 1012.5
20190716162319 67 219 5.0 10.0 0.00 0.00 0.00 74 1012.5
20190716161822 67 190 3.0 10.0 0.00 0.00 0.00 75 1012.5
20190716161325 66 199 3.0 11.0 0.00 0.00 0.00 76 1012.6
20190716160810 65 149 4.0 11.0 0.00 0.00 0.00 77 1012.6
20190716160311 65 192 6.0 13.0 0.00 0.00 0.00 77 1012.5
20190716155823 65 196 5.0 13.0 0.00 0.00 0.00 77 1012.5
20190716155323 65 173 3.0 13.0 0.00 0.00 0.00 78 1012.5
20190716154824 65 202 3.0 12.0 0.00 0.00 0.00 78 1012.5
20190716154326 64 191 5.0 16.0 0.00 0.00 0.00 79 1012.4
20190716153827 64 202 7.0 16.0 0.00 0.00 0.00 79 1012.4
20190716153329 64 225 5.0 15.0 0.00 0.00 0.00 80 1012.5
20190716152829 63 229 6.0 15.0 0.00 0.00 0.00 81 1012.5
20190716152309 63 237 5.0 16.0 0.00 0.00 0.00 81 1012.4
20190716151830 63 229 6.0 16.0 0.00 0.00 0.00 81 1012.5
20190716151328 63 219 2.0 8.0 0.00 0.00 0.00 82 1012.4
20190716150828 62 194 0.0 8.0 0.00 0.00 0.00 82 1012.3
20190716150313 62 194 3.0 15.0 0.00 0.00 0.00 83 1012.3
20190716145826 62 178 5.0 15.0 0.00 0.00 0.00 82 1012.3
20190716145327 62 182 3.0 10.0 0.00 0.00 0.00 83 1012.2
20190716144828 62 209 2.0 8.0 0.00 0.00 0.00 83 1012.2
20190716144329 62 209 0.0 13.0 0.00 0.00 0.00 84 1012.3
20190716143829 61 211 3.0 16.0 0.00 0.00 0.00 84 1012.2
20190716143310 61 181 4.0 10.0 0.00 0.00 0.00 84 1012.3
20190716142811 61 207 2.0 10.0 0.00 0.00 0.00 85 1012.3
20190716142312 61 211 5.0 14.0 0.00 0.00 0.00 86 1012.3
20190716141814 60 207 4.0 14.0 0.00 0.00 0.00 86 1012.2
20190716141315 60 198 7.0 10.0 0.00 0.00 0.00 87 1012.2
20190716140817 60 188 3.0 10.0 0.00 0.00 0.00 87 1012.2
20190716140318 60 193 4.0 10.0 0.00 0.00 0.00 87 1012.1
20190716135815 59 217 3.0 12.0 0.00 0.00 0.00 88 1012.0
20190716135316 59 200 6.0 12.0 0.00 0.00 0.00 88 1012.0
20190716134818 59 222 3.0 11.0 0.00 0.00 0.00 88 1012.0
20190716134320 59 205 3.0 16.0 0.00 0.00 0.00 88 1012.0
20190716133819 59 215 5.0 16.0 0.00 0.00 0.00 89 1012.0
20190716133321 59 216 7.0 16.0 0.00 0.00 0.00 89 1012.0
20190716132822 59 209 4.0 9.0 0.00 0.00 0.00 89 1012.1
20190716132324 59 222 2.0 8.0 0.00 0.00 0.00 89 1012.1
20190716131825 59 223 2.0 8.0 0.00 0.00 0.00 89 1012.1
20190716131326 59 314 1.0 9.0 0.00 0.00 0.00 88 1012.0
20190716130826 58 229 3.0 9.0 0.00 0.00 0.00 88 1012.0
20190716130326 59 198 3.0 9.0 0.00 0.00 0.00 88 1012.0
20190716125819 59 224 0.0 8.0 0.00 0.00 0.00 88 1011.9
20190716125325 59 211 2.0 11.0 0.00 0.00 0.00 88 1011.9
20190716124826 59 207 5.0 14.0 0.00 0.00 0.00 88 1011.8
20190716124327 59 208 8.0 14.0 0.00 0.00 0.00 88 1011.9
20190716123828 59 229 3.0 11.0 0.00 0.00 0.00 88 1011.8
20190716123330 59 226 4.0 11.0 0.00 0.00 0.00 88 1011.8
20190716122811 59 196 5.0 8.0 0.00 0.00 0.00 88 1011.8
20190716122313 59 213 0.0 6.0 0.00 0.00 0.00 88 1011.8
20190716121814 59 214 1.0 7.0 0.00 0.00 0.00 88 1011.8
20190716121316 59 208 1.0 6.0 0.00 0.00 0.00 88 1011.8
20190716120817 59 210 1.0 6.0 0.00 0.00 0.00 88 1011.8
20190716120319 59 216 2.0 11.0 0.00 0.00 0.00 89 1011.8
20190716115813 59 190 2.0 11.0 0.00 0.00 0.00 89 1011.7
20190716115319 58 227 2.0 8.0 0.00 0.00 0.00 89 1011.7
20190716114821 59 212 0.0 7.0 0.00 0.00 0.00 89 1011.7
20190716114322 59 207 4.0 10.0 0.00 0.00 0.00 89 1011.7
20190716113822 59 219 1.0 13.0 0.00 0.00 0.00 89 1011.7
20190716113323 59 188 2.0 13.0 0.00 0.00 0.00 89 1011.7
20190716112825 59 25 0.0 6.0 0.00 0.00 0.00 89 1011.7
20190716112325 59 37 1.0 14.0 0.00 0.00 0.00 88 1011.7
20190716111825 59 199 5.0 14.0 0.00 0.00 0.00 88 1011.6
20190716111326 59 273 2.0 14.0 0.00 0.00 0.00 88 1011.7
20190716110827 59 214 3.0 10.0 0.00 0.00 0.00 87 1011.8
20190716110327 59 201 4.0 10.0 0.00 0.00 0.00 87 1011.8
20190716105821 60 212 1.0 8.0 0.00 0.00 0.00 87 1011.8
20190716105324 60 222 0.0 5.0 0.00 0.00 0.00 87 1011.8
20190716104827 60 223 1.0 5.0 0.00 0.00 0.00 87 1011.8
20190716104327 60 182 0.0 6.0 0.00 0.00 0.00 86 1011.9
20190716103828 60 188 0.0 8.0 0.00 0.00 0.00 86 1011.9
20190716103329 60 192 1.0 8.0 0.00 0.00 0.00 86 1011.9
20190716102811 60 209 0.0 4.0 0.00 0.00 0.00 86 1012.0
20190716102313 60 222 1.0 11.0 0.00 0.00 0.00 86 1011.9
20190716101814 60 215 0.0 14.0 0.00 0.00 0.00 86 1011.9
20190716101316 60 211 8.0 18.0 0.00 0.00 0.00 86 1011.7
20190716100817 60 227 7.0 18.0 0.00 0.00 0.00 86 1011.7
20190716100319 60 234 5.0 13.0 0.00 0.00 0.00 86 1011.8
20190716095813 60 207 6.0 14.0 0.00 0.00 0.00 86 1012.0
20190716095315 60 200 7.0 15.0 0.00 0.00 0.00 86 1011.9
20190716094821 60 200 5.0 15.0 0.00 0.00 0.00 86 1011.9
20190716094323 60 228 3.0 13.0 0.00 0.00 0.00 86 1011.9
20190716093822 60 217 6.0 13.0 0.00 0.00 0.00 86 1011.8
20190716093324 60 215 7.0 13.0 0.00 0.00 0.00 87 1011.8
20190716092826 60 230 7.0 13.0 0.00 0.00 0.00 87 1011.9
20190716092328 60 178 5.0 12.0 0.00 0.00 0.00 87 1011.9
20190716091829 60 215 7.0 11.0 0.00 0.00 0.00 87 1012.0
20190716091329 60 196 4.0 6.0 0.00 0.00 0.00 88 1012.0
20190716090810 60 156 3.0 7.0 0.00 0.00 0.00 88 1012.0
20190716090313 60 172 2.0 7.0 0.00 0.00 0.00 88 1012.1
20190716085826 60 88 1.0 11.0 0.00 0.00 0.00 88 1012.0
20190716085326 60 198 2.0 14.0 0.00 0.00 0.00 87 1012.0
20190716084810 60 203 4.0 14.0 0.00 0.00 0.00 87 1012.1
20190716084311 60 201 4.0 9.0 0.00 0.00 0.00 87 1012.2
20190716083812 60 186 1.0 7.0 0.00 0.00 0.00 86 1012.2
20190716083314 60 192 3.0 7.0 0.00 0.00 0.00 86 1012.3
20190716082813 60 156 1.0 11.0 0.00 0.00 0.00 86 1012.4
20190716082315 60 126 2.0 11.0 0.00 0.00 0.00 85 1012.6
20190716081817 61 79 3.0 9.0 0.00 0.00 0.00 84 1012.7
20190716080820 61 92 2.0 8.0 0.00 0.00 0.00 83 1012.5
20190716080321 61 157 3.0 7.0 0.00 0.00 0.00 83 1012.6
20190716075815 62 140 2.0 9.0 0.00 0.00 0.00 83 1012.6
20190716075317 62 128 5.0 9.0 0.00 0.00 0.00 83 1012.6
20190716074817 62 123 1.0 9.0 0.00 0.00 0.00 82 1012.7
20190716074323 62 102 2.0 9.0 0.00 0.00 0.00 82 1012.6
20190716073822 62 104 1.0 6.0 0.00 0.00 0.00 82 1012.7
20190716073322 63 95 1.0 7.0 0.00 0.00 0.00 81 1012.8
20190716072824 63 99 4.0 9.0 0.00 0.00 0.00 81 1012.8
20190716072324 63 92 5.0 9.0 0.00 0.00 0.00 80 1012.8
20190716071824 63 80 4.0 8.0 0.00 0.00 0.00 80 1012.7
20190716071326 64 112 2.0 8.0 0.00 0.00 0.00 79 1012.6
20190716070827 64 141 2.0 7.0 0.00 0.00 0.00 79 1012.6
20190716070327 63 194 1.0 7.0 0.00 0.00 0.00 79 1012.6
20190716065817 63 155 0.0 6.0 0.00 0.00 0.00 80 1012.7
20190716065319 63 146 3.0 13.0 0.00 0.00 0.00 80 1012.8
20190716064821 63 190 3.0 13.0 0.00 0.00 0.00 81 1012.9
20190716064322 63 169 2.0 9.0 0.00 0.00 0.00 80 1013.0
20190716063827 63 198 5.0 9.0 0.00 0.00 0.00 80 1013.0
20190716063328 63 167 3.0 9.0 0.00 0.00 0.00 80 1013.1
20190716062809 63 196 4.0 9.0 0.00 0.00 0.00 80 1013.1
20190716062311 63 215 4.0 15.0 0.00 0.00 0.00 80 1013.1
20190716061813 64 147 3.0 15.0 0.00 0.00 0.00 79 1013.2
20190716061313 64 195 3.0 10.0 0.00 0.00 0.00 79 1013.2
20190716060814 64 219 2.0 10.0 0.00 0.00 0.00 78 1013.3
20190716060316 64 167 0.0 10.0 0.00 0.00 0.00 78 1013.2
20190716055829 64 207 6.0 11.0 0.00 0.00 0.00 77 1013.2
20190716055330 65 225 5.0 11.0 0.00 0.00 0.00 76 1013.2
20190716054829 65 215 4.0 8.0 0.00 0.00 0.00 76 1013.2
20190716054310 65 215 1.0 8.0 0.00 0.00 0.00 75 1013.3
20190716053816 65 146 1.0 8.0 0.00 0.00 0.00 75 1013.2
20190716053317 66 173 0.0 8.0 0.00 0.00 0.00 74 1013.2
20190716052819 66 182 2.0 7.0 0.00 0.00 0.00 73 1013.2
20190716052320 66 188 1.0 7.0 0.00 0.00 0.00 73 1013.2
20190716051821 67 144 2.0 9.0 0.00 0.00 0.00 72 1013.1
20190716051322 67 193 0.0 9.0 0.00 0.00 0.00 71 1013.2
20190716050823 67 194 2.0 10.0 0.00 0.00 0.00 71 1013.2
20190716050324 67 202 5.0 10.0 0.00 0.00 0.00 71 1013.1
20190716045817 67 246 2.0 12.0 0.00 0.00 0.00 71 1013.1
20190716045319 67 216 2.0 12.0 0.00 0.00 0.00 71 1012.9
20190716044819 66 198 4.0 11.0 0.00 0.00 0.00 72 1012.9
20190716044319 67 158 2.0 8.0 0.00 0.00 0.00 72 1013.0
20190716043820 67 157 3.0 8.0 0.00 0.00 0.00 72 1013.0
20190716043324 67 92 2.0 7.0 0.00 0.00 0.00 71 1013.0
20190716042825 67 190 2.0 8.0 0.00 0.00 0.00 71 1012.9
20190716042328 67 204 2.0 8.0 0.00 0.00 0.00 70 1012.8
20190716041830 68 105 3.0 9.0 0.00 0.00 0.00 70 1012.7
20190716041311 68 136 4.0 12.0 0.00 0.00 0.00 69 1012.7
20190716040813 68 112 3.0 12.0 0.00 0.00 0.00 69 1012.8
20190716040316 68 140 2.0 12.0 0.00 0.00 0.00 69 1012.8
20190716035829 69 90 3.0 16.0 0.00 0.00 0.00 68 1012.7
20190716035310 69 140 4.0 16.0 0.00 0.00 0.00 68 1012.7
20190716034812 69 211 9.0 18.0 0.00 0.00 0.00 67 1012.7
20190716034312 70 167 3.0 18.0 0.00 0.00 0.00 66 1012.8
20190716033812 71 119 2.0 11.0 0.00 0.00 0.00 64 1012.9
20190716033317 72 207 4.0 10.0 0.00 0.00 0.00 63 1012.8
20190716032819 72 212 3.0 10.0 0.00 0.00 0.00 62 1012.8
20190716032321 73 185 2.0 11.0 0.00 0.00 0.00 61 1012.8
20190716031823 73 205 5.0 11.0 0.00 0.00 0.00 60 1012.8
20190716031324 73 163 3.0 8.0 0.00 0.00 0.00 60 1012.9
20190716030823 73 212 1.0 4.0 0.00 0.00 0.00 61 1012.9
20190716030324 73 128 0.0 6.0 0.00 0.00 0.00 61 1012.8
20190716025818 74 146 2.0 7.0 0.00 0.00 0.00 60 1012.9
20190716025319 74 107 2.0 7.0 0.00 0.00 0.00 58 1012.9
20190716024820 75 158 1.0 7.0 0.00 0.00 0.00 57 1012.8
20190716024321 76 105 2.0 7.0 0.00 0.00 0.00 56 1012.9
20190716023822 77 96 3.0 7.0 0.00 0.00 0.00 54 1012.8
20190716023322 77 180 0.0 6.0 0.00 0.00 0.00 50 1012.9
20190716022828 78 196 2.0 8.0 0.00 0.00 0.00 50 1012.9
20190716022328 78 269 2.0 13.0 0.00 0.00 0.00 48 1012.9
20190716021830 78 125 6.0 13.0 0.00 0.00 0.00 46 1012.8
20190716021310 78 75 3.0 9.0 0.00 0.00 0.00 46 1012.9
20190716020812 78 241 1.0 7.0 0.00 0.00 0.00 46 1012.9
20190716020313 78 132 1.0 6.0 0.00 0.00 0.00 46 1013.0
20190716015826 79 225 2.0 11.0 0.00 0.00 0.00 46 1013.0
20190716015326 79 112 5.0 11.0 0.00 0.00 0.00 45 1013.0
20190716014827 79 218 2.0 7.0 0.00 0.00 0.00 46 1013.0
20190716014329 79 182 1.0 8.0 0.00 0.00 0.00 45 1013.0
20190716013810 79 181 4.0 11.0 0.00 0.00 0.00 45 1012.8
20190716013310 79 149 1.0 11.0 0.00 0.00 0.00 46 1012.8
20190716012816 80 180 3.0 9.0 0.00 0.00 0.00 46 1012.9
20190716012317 80 229 5.0 15.0 0.00 0.00 0.00 45 1012.8